Weather in Skvyra

Ukraine / Kyiv Region     49˚43′54″N   29˚39′58″E
temp.,
°C
wind,
m/s
gust,
m/s
humid.,
%
clouds,
%
prec.,
mm/h
press.,
hPa
HPBL,
m
2 december, wed
wed223:00ne4694100 0.1 1027380
02:00−1˚nne3595100 0.2 1027279
05:00−1˚ne3597100 0.3 1027227
08:00−2˚ene249897 0.3 1027148
11:00e238694 0.1 1028389
14:00+1˚ese227995 0.1 1026461
17:00−2˚ese228989 0.1 102626
20:00−2˚ese229683 0.1 102724
3 december, thu
thu323:00−2˚se229652 0.0 102733
02:00−2˚se229844 0.0 102731
05:00se359791 0.0 1026200
08:00−2˚se369687 0.1 1026192
11:00se468894 0.0 1025488
14:00+2˚ese478897 0.0 1024305
17:00ese369681 0.0 1023162
20:00+1˚ese499791 0.0 1023309
4 december, fri
fri423:00+2˚se499797 0.0 1022292
02:00+3˚se5109698 0.0 1022326
05:00+3˚se6119699 0.0 1021457
08:00+4˚sse61188100 0.0 1022573
11:00+5˚sse7118390 0.0 1022782
14:00+5˚se7118695 0.0 1021522
17:00+4˚se7138857 0.0 1022443
20:00+3˚se7129359 0.0 1023575
5 december, sat
sat523:00+4˚sse61192100 0.0 1024662
02:00+4˚se61188100 0.0 1024583
05:00+3˚se71188100 0.0 1024605
08:00+3˚se71190100 0.0 1025620
11:00+3˚se71187100 0.0 1026602
14:00+3˚se61082100 0.0 1026570
17:00+2˚se6108295 0.0 1027560
20:00+1˚se6118292 0.0 1028565
6 december, sun
sun623:00−1˚se5128421 0.0 1028520
02:00−1˚se5118326 0.0 1029551
05:00−2˚se5117429 0.0 1029527
08:00−2˚se5116714 0.0 1029523
11:00se711580 0.0 1029588
14:00+1˚se711580 0.0 1028659
17:00−1˚ese612660 0.0 1028553
20:00−2˚se613630 0.0 1029590